• In Österreich
  • Länderverzeichnis
  • Für 7 Tage
  • Wassertemperatur
  • Satellitenkarten
  • Wetterkarte
  • News
  • Widgets
  • user-avatar
    Anmelden

    Stündliche Wetter Kielminek

    Heute, 20 Juli, Freitag

    Zeit Temperatur Niederschläge Wind Luftdruck Luftfeuchtigkeit
    00:00 +18°C° 0 mm 3 m/S 747 mmHg 94%
    01:00 +18°C° 0 mm 3 m/S 747 mmHg 95%
    02:00 +18°C° 0 mm 3 m/S 747 mmHg 95%
    03:00 +18°C° 0 mm 3 m/S 747 mmHg 95%
    04:00 +17°C° 0 mm 3 m/S 747 mmHg 96%
    05:00 +19°C° 0 mm 3 m/S 747 mmHg 92%
    06:00 +20°C° 0 mm 3 m/S 747 mmHg 89%
    07:00 +21°C° 0 mm 3 m/S 747 mmHg 85%
    08:00 +22°C° 0,4 mm 4 m/S 747 mmHg 80%
    09:00 +23°C° 0,4 mm 4 m/S 747 mmHg 75%
    10:00 +25°C° 0,4 mm 4 m/S 747 mmHg 71%
    11:00 +26°C° 0,3 mm 4 m/S 747 mmHg 69%
    12:00 +26°C° 0,3 mm 4 m/S 747 mmHg 67%
    13:00 +27°C° 0 mm 4 m/S 747 mmHg 65%
    14:00 +26°C° 0,1 mm 5 m/S 747 mmHg 66%
    15:00 +26°C° 0,1 mm 5 m/S 747 mmHg 68%
    16:00 +26°C° 0,1 mm 5 m/S 747 mmHg 70%
    17:00 +23°C° 0,1 mm 5 m/S 747 mmHg 75%
    18:00 +22°C° 0,1 mm 4 m/S 747 mmHg 80%
    19:00 +21°C° 0,1 mm 4 m/S 747 mmHg 85%
    20:00 +19°C° 0 mm 3 m/S 747 mmHg 88%
    21:00 +18°C° 0 mm 3 m/S 747 mmHg 90%
    22:00 +17°C° 0 mm 3 m/S 747 mmHg 93%
    23:00 +16°C° 0 mm 3 m/S 747 mmHg 92%

    Morgen, 21 Juli, Samstag

    Zeit Temperatur Niederschläge Wind Luftdruck Luftfeuchtigkeit
    00:00 +16°C° 0 mm 3 m/S 747 mmHg 92%
    01:00 +14°C° 0 mm 3 m/S 747 mmHg 91%
    02:00 +14°C° 0 mm 3 m/S 747 mmHg 91%
    03:00 +13°C° 0 mm 3 m/S 747 mmHg 91%
    04:00 +13°C° 0 mm 3 m/S 747 mmHg 90%
    05:00 +14°C° 0 mm 3 m/S 747 mmHg 86%
    06:00 +17°C° 0 mm 3 m/S 747 mmHg 83%
    07:00 +18°C° 0 mm 3 m/S 748 mmHg 79%
    08:00 +20°C° 0 mm 3 m/S 748 mmHg 74%
    09:00 +22°C° 0 mm 3 m/S 748 mmHg 69%
    10:00 +24°C° 0 mm 3 m/S 748 mmHg 64%
    11:00 +25°C° 0 mm 3 m/S 748 mmHg 62%
    12:00 +26°C° 0 mm 3 m/S 748 mmHg 60%
    13:00 +26°C° 0 mm 2 m/S 748 mmHg 58%
    14:00 +26°C° 0 mm 2 m/S 748 mmHg 58%
    15:00 +26°C° 0 mm 2 m/S 748 mmHg 58%
    16:00 +26°C° 0 mm 2 m/S 747 mmHg 59%
    17:00 +25°C° 0 mm 2 m/S 747 mmHg 66%
    18:00 +24°C° 0 mm 2 m/S 747 mmHg 73%
    19:00 +21°C° 0 mm 2 m/S 747 mmHg 80%
    20:00 +20°C° 0 mm 2 m/S 748 mmHg 83%
    21:00 +20°C° 0 mm 1 m/S 748 mmHg 86%
    22:00 +19°C° 0 mm 1 m/S 748 mmHg 89%
    23:00 +18°C° 0 mm 1 m/S 748 mmHg 89%

    übermorgen, 22 Juli, Sonntag

    Zeit Temperatur Niederschläge Wind Luftdruck Luftfeuchtigkeit
    00:00 +18°C° 0 mm 1 m/S 748 mmHg 90%
    01:00 +18°C° 0 mm 1 m/S 748 mmHg 90%
    02:00 +16°C° 0 mm 1 m/S 748 mmHg 91%
    03:00 +16°C° 0 mm 1 m/S 748 mmHg 91%
    04:00 +16°C° 0 mm 1 m/S 748 mmHg 91%
    05:00 +18°C° 0 mm 1 m/S 748 mmHg 86%
    06:00 +20°C° 0 mm 1 m/S 748 mmHg 81%
    07:00 +22°C° 0 mm 1 m/S 748 mmHg 75%
    08:00 +23°C° 0 mm 1 m/S 748 mmHg 71%
    09:00 +24°C° 0 mm 1 m/S 748 mmHg 67%
    10:00 +26°C° 0 mm 1 m/S 748 mmHg 63%
    11:00 +26°C° 0,1 mm 2 m/S 748 mmHg 62%
    12:00 +26°C° 0,1 mm 2 m/S 748 mmHg 61%
    13:00 +27°C° 0,1 mm 3 m/S 748 mmHg 60%
    14:00 +26°C° 0,1 mm 3 m/S 748 mmHg 62%
    15:00 +26°C° 0,1 mm 4 m/S 748 mmHg 65%
    16:00 +25°C° 0,1 mm 4 m/S 748 mmHg 67%
    17:00 +23°C° 0,1 mm 4 m/S 748 mmHg 73%
    18:00 +22°C° 0,1 mm 3 m/S 748 mmHg 78%
    19:00 +20°C° 0,1 mm 3 m/S 748 mmHg 83%
    20:00 +19°C° 0 mm 2 m/S 748 mmHg 86%
    21:00 +18°C° 0 mm 2 m/S 748 mmHg 88%
    22:00 +17°C° 0 mm 2 m/S 748 mmHg 90%
    23:00 +17°C° 0 mm 2 m/S 748 mmHg 90%

    23 Juli, Montag

    Zeit Temperatur Niederschläge Wind Luftdruck Luftfeuchtigkeit
    00:00 +16°C° 0 mm 2 m/S 748 mmHg 90%
    01:00 +16°C° 0 mm 1 m/S 748 mmHg 89%
    02:00 +16°C° 0 mm 1 m/S 748 mmHg 89%
    03:00 +15°C° 0 mm 1 m/S 748 mmHg 89%
    04:00 +15°C° 0 mm 1 m/S 748 mmHg 89%
    05:00 +17°C° 0 mm 2 m/S 748 mmHg 85%
    06:00 +18°C° 0 mm 2 m/S 748 mmHg 80%
    07:00 +20°C° 0 mm 2 m/S 748 mmHg 75%
    08:00 +21°C° 0 mm 2 m/S 748 mmHg 70%
    09:00 +23°C° 0 mm 2 m/S 748 mmHg 65%
    10:00 +25°C° 0 mm 2 m/S 748 mmHg 60%
    11:00 +25°C° 0 mm 3 m/S 748 mmHg 58%
    12:00 +26°C° 0 mm 3 m/S 748 mmHg 57%
    13:00 +26°C° 0 mm 3 m/S 748 mmHg 56%
    14:00 +26°C° 0 mm 3 m/S 748 mmHg 58%
    15:00 +26°C° 0 mm 3 m/S 748 mmHg 60%
    16:00 +26°C° 0 mm 3 m/S 748 mmHg 62%
    17:00 +24°C° 0 mm 3 m/S 748 mmHg 68%
    18:00 +22°C° 0 mm 3 m/S 748 mmHg 74%
    19:00 +21°C° 0 mm 2 m/S 748 mmHg 80%
    20:00 +20°C° 0 mm 2 m/S 748 mmHg 83%
    21:00 +18°C° 0 mm 2 m/S 748 mmHg 86%
    22:00 +18°C° 0 mm 1 m/S 749 mmHg 90%
    23:00 +18°C° 0 mm 1 m/S 749 mmHg 90%

    24 Juli, Dienstag

    Zeit Temperatur Niederschläge Wind Luftdruck Luftfeuchtigkeit
    00:00 +16°C° 0 mm 1 m/S 749 mmHg 91%
    01:00 +16°C° 0 mm 2 m/S 748 mmHg 91%
    02:00 +16°C° 0 mm 2 m/S 748 mmHg 92%
    03:00 +16°C° 0 mm 2 m/S 748 mmHg 92%
    04:00 +16°C° 0 mm 2 m/S 748 mmHg 93%
    05:00 +17°C° 0 mm 2 m/S 749 mmHg 88%
    06:00 +19°C° 0 mm 2 m/S 749 mmHg 84%
    07:00 +20°C° 0 mm 3 m/S 749 mmHg 79%
    08:00 +22°C° 0 mm 3 m/S 749 mmHg 74%
    09:00 +24°C° 0 mm 3 m/S 749 mmHg 70%
    10:00 +25°C° 0 mm 3 m/S 749 mmHg 65%
    11:00 +25°C° 0 mm 4 m/S 749 mmHg 64%
    12:00 +25°C° 0 mm 4 m/S 749 mmHg 63%
    13:00 +26°C° 0 mm 4 m/S 749 mmHg 63%
    14:00 +25°C° 0 mm 4 m/S 749 mmHg 63%
    15:00 +25°C° 0 mm 4 m/S 749 mmHg 64%
    16:00 +25°C° 0 mm 5 m/S 749 mmHg 65%
    17:00 +23°C° 0 mm 4 m/S 749 mmHg 71%
    18:00 +21°C° 0 mm 4 m/S 749 mmHg 76%
    19:00 +20°C° 0 mm 3 m/S 749 mmHg 82%
    20:00 +19°C° 0 mm 3 m/S 749 mmHg 85%
    21:00 +18°C° 0 mm 3 m/S 749 mmHg 88%
    22:00 +17°C° 0 mm 3 m/S 749 mmHg 91%
    23:00 +17°C° 0 mm 3 m/S 749 mmHg 92%

    25 Juli, Mittwoch

    Zeit Temperatur Niederschläge Wind Luftdruck Luftfeuchtigkeit
    00:00 +17°C° 0 mm 3 m/S 749 mmHg 92%
    01:00 +17°C° 0 mm 3 m/S 749 mmHg 93%
    02:00 +17°C° 0 mm 3 m/S 749 mmHg 93%
    03:00 +17°C° 0 mm 3 m/S 749 mmHg 93%
    04:00 +17°C° 0 mm 3 m/S 749 mmHg 94%
    05:00 +18°C° 0 mm 3 m/S 749 mmHg 88%
    06:00 +20°C° 0 mm 4 m/S 750 mmHg 83%
    07:00 +21°C° 0 mm 4 m/S 750 mmHg 78%
    08:00 +22°C° 0 mm 4 m/S 750 mmHg 74%
    09:00 +23°C° 0 mm 4 m/S 750 mmHg 70%
    10:00 +26°C° 0 mm 4 m/S 750 mmHg 66%
    11:00 +26°C° 0 mm 5 m/S 750 mmHg 65%
    12:00 +27°C° 0 mm 5 m/S 750 mmHg 63%
    13:00 +27°C° 0 mm 5 m/S 749 mmHg 62%
    14:00 +27°C° 0 mm 5 m/S 749 mmHg 63%
    15:00 +26°C° 0 mm 5 m/S 749 mmHg 64%
    16:00 +26°C° 0 mm 5 m/S 749 mmHg 65%
    17:00 +23°C° 0 mm 5 m/S 749 mmHg 71%
    18:00 +22°C° 0 mm 4 m/S 749 mmHg 76%
    19:00 +21°C° 0 mm 4 m/S 749 mmHg 81%
    20:00 +20°C° 0 mm 3 m/S 749 mmHg 85%
    21:00 +19°C° 0 mm 3 m/S 749 mmHg 89%
    22:00 +18°C° 0 mm 3 m/S 749 mmHg 94%
    23:00 +18°C° 0 mm 3 m/S 749 mmHg 94%
    Mehr zeigen